Vorticity
nan nan nan nan nan nan nan nan nan nan nan nan nan nan nan nan nan nan nan nan nan nan nan nan nan nan nan nan nan nan nan nan nan
nan 6 7 9 5 7 7 6 5 6 7 5 2 1 1 2 6 6 7 13 10 5 4 6 6 5 7 6 6 5 6 5 nan
nan 6 9 9 7 6 7 6 5 7 7 7 1 2 6 4 6 6 10 13 7 6 7 7 5 5 7 7 6 5 5 5 nan
nan 8 11 9 9 7 6 5 6 6 5 7 4 7 6 6 6 5 10 13 7 5 6 6 5 6 5 7 6 5 5 6 nan
nan 13 11 10 8 9 8 6 7 4 5 12 12 8 2 5 5 6 14 14 7 5 5 5 5 5 5 6 6 7 6 6 nan
nan 17 16 10 7 9 9 7 3 1 2 8 14 4 3 7 6 11 15 9 8 4 4 5 5 5 4 5 5 6 8 6 nan
nan 7 18 19 9 1 3 2 -2 0 1 1 7 8 9 7 7 13 15 9 7 5 5 6 5 5 5 4 5 5 5 5 nan
nan 7 10 13 12 5 4 -2 1 6 8 7 10 11 8 7 9 16 13 9 7 7 8 7 7 7 9 9 7 6 7 6 nan
nan 8 9 5 6 10 6 6 8 6 7 8 8 9 9 9 9 15 16 11 9 7 7 9 9 10 11 12 9 6 12 13 nan
nan 8 8 6 7 8 7 6 5 6 5 6 8 8 9 11 10 13 15 11 10 8 8 8 7 8 9 9 10 7 6 10 nan
nan 7 9 8 6 9 7 7 9 8 6 6 7 7 8 8 11 14 14 13 10 10 8 6 6 6 5 5 5 6 6 5 nan
nan 7 6 8 8 8 6 7 8 7 7 6 6 6 8 8 8 9 13 14 12 11 8 6 5 5 5 5 5 5 4 5 nan
nan 7 7 9 9 6 7 6 6 7 7 5 6 7 7 7 7 10 10 11 11 10 9 7 5 5 5 5 5 5 6 6 nan
nan 7 9 8 8 7 7 9 8 6 7 8 7 7 8 7 7 7 7 9 12 8 6 4 6 9 7 6 5 5 6 5 nan
nan 9 8 6 7 8 8 8 10 8 5 4 6 7 9 9 7 7 6 7 9 12 8 3 6 8 9 7 7 6 6 6 nan
nan 12 8 8 9 7 7 8 5 5 3 1 2 4 6 8 9 7 7 7 9 12 7 11 11 9 7 5 7 7 6 6 nan
nan 14 10 10 9 9 8 4 0 7 5 1 6 4 3 3 6 9 7 6 11 7 9 10 7 9 9 11 10 7 7 5 nan
nan 10 15 12 11 11 6 4 6 4 9 6 4 9 9 4 3 7 7 7 11 5 8 7 9 9 11 13 10 10 10 8 nan
nan 7 12 10 12 14 12 7 6 6 4 4 4 11 13 11 6 6 6 7 7 9 9 5 8 9 10 10 12 14 11 8 nan
nan nan nan nan nan nan nan nan nan nan nan nan nan nan nan nan nan nan nan nan nan nan nan nan nan nan nan nan nan nan nan nan nan
CAPE
1852 1879 1665 1230 1494 1549 1584 1674 1782 1489 1537 1388 1322 1146 678 69 76 149 364 67 323 671 183 124 145 33 22 19 21 136 149 136 181
1835 1816 1411 1249 1019 1534 1439 1467 1473 1347 1242 1234 1257 765 89 0 85 139 121 60 205 513 463 582 209 15 18 18 14 148 167 145 41
1377 1603 1202 1137 1463 1572 1565 1549 1466 1121 1014 1097 868 381 0 147 86 94 77 134 135 312 509 450 168 16 17 21 20 83 81 50 20
1187 1084 1263 1176 1228 1185 1222 1088 1185 978 802 595 325 113 78 107 141 60 51 352 315 434 633 263 85 15 26 22 22 27 46 21 16
837 719 594 884 888 761 849 857 974 725 322 254 239 106 117 107 85 49 58 588 238 406 321 204 14 83 78 97 42 22 33 24 39
37 34 153 438 523 498 346 314 178 26 5 16 89 159 133 120 100 58 403 709 307 334 434 428 127 44 81 101 36 213 108 56 43
0 1 31 241 178 111 171 89 27 1 0 0 0 31 31 88 90 102 444 774 392 277 813 593 494 235 222 204 228 191 44 37 33
1 0 16 9 7 44 65 6 0 0 0 0 1 0 3 1 7 77 201 824 586 531 441 335 411 322 241 202 166 103 71 49 36
1 0 1 1 2 1 0 0 0 0 0 0 2 1 1 1 1 13 163 681 691 600 483 289 298 287 259 235 209 144 175 151 123
1 1 1 1 0 0 0 0 0 0 0 0 2 4 1 1 1 1 169 316 636 557 575 568 400 415 348 282 187 150 144 173 125
0 0 0 0 0 0 0 0 0 0 0 1 2 4 6 3 0 1 31 116 235 524 473 396 393 340 286 208 129 82 77 59 43
0 0 0 0 0 0 0 1 0 0 0 1 0 0 1 3 3 0 0 45 121 232 312 271 223 205 189 148 84 40 37 35 29
0 0 0 0 0 0 0 0 1 0 0 0 0 0 0 1 0 0 0 0 22 105 160 188 155 89 82 79 54 45 25 11 12
0 0 0 0 0 0 0 0 0 0 0 0 0 0 1 1 5 0 0 0 1 0 0 10 17 36 47 48 46 40 31 27 27
0 0 0 0 0 0 0 0 0 0 0 1 1 0 1 3 2 2 0 0 0 0 0 0 0 11 22 22 26 26 28 23 21
6 0 0 0 0 0 0 1 0 0 0 0 0 0 0 1 0 2 0 0 0 0 0 0 0 3 23 20 15 18 21 22 16
1 0 0 0 0 0 0 0 0 0 0 0 0 0 0 0 0 0 0 0 0 0 0 0 0 0 0 1 20 16 13 15 18
1 0 3 0 0 0 1 0 0 0 0 0 0 0 0 0 0 0 0 0 0 0 0 0 0 0 0 0 4 16 23 11 17
0 0 0 0 1 0 2 0 0 0 0 0 0 0 0 0 0 0 0 0 0 0 0 0 0 0 0 0 0 10 20 22 23
1 1 0 0 0 0 2 0 0 0 0 0 0 0 0 0 0 0 0 0 0 0 0 0 0 0 0 0 0 0 5 13 13